Regional Weather Roundup
Issued by NWS

Home | Current Version | Previous Version | Text Only | Print | Product List | Glossary On
Versions: 1 2 3 4 5 6 7 8 9 10 11 12 13 14 15 16 17 18 19 20 21 22 23 24 25 26 27 28 29 30 31 32 33 34 35 36 37 38 39 40 41 42 43 44 45 46 47 48 49 50
000
ASUS43 KDTX 272110
RWRMI
MICHIGAN HOURLY REGIONAL WEATHER ROUNDUP
NATIONAL WEATHER SERVICE DETROIT/PONTIAC MI
ISSUED BY NATIONAL WEATHER SERVICE GRAND RAPIDS MI
500 PM EDT SUN MAY 27 2018

NOTE: "FAIR" INDICATES FEW OR NO CLOUDS BELOW 12,000 FEET WITH NO
SIGNIFICANT WEATHER AND/OR OBSTRUCTION TO VISIBILITY.

MIZ047>049-052>055-059>063-066>070-074>076-081>083-272200-
SOUTHEAST LOWER MICHIGAN

CITY           SKY/WX    TMP DP  RH WIND       PRES   REMARKS
ADRIAN         FAIR      89  60  37 NW3       29.89F
ALMA           FAIR      89  64  44 CALM      29.85S HX  90
ANN ARBOR      FAIR      89  61  38 S8        29.88F
BAD AXE        FAIR      84  63  48 SW7       29.87R
DETROIT CITY   FAIR      88  66  48 S9G17     29.86F HX  90
DETROIT        FAIR      90  62  39 SW6       29.87F HX  90
FLINT          FAIR      88  64  44 SW10G17   29.86F
GROSSE ILE     FAIR      78  70  75 S8        29.88F
HILLSDALE      FAIR      90  55  31 CALM      29.89F
HOWELL         FAIR      88  63  42 W8        29.88F

CITY           SKY/WX    TMP DP  RH WIND       PRES   REMARKS
JACKSON        FAIR      90  62  39 SW3       29.88F HX  90
LANSING        FAIR      92  61  35 W16       29.87F HX  92
MASON          PTSUNNY   91  60  35 W7        29.88F HX  90
MONROE         FAIR      84  69  60 SE10      29.87F
MT. CLEMENS    MOSUNNY   84  73  68 S14       29.87F HX  90
PONTIAC        FAIR      89  63  41 W8        29.87F HX  90
PORT HOPE        N/A     73  62  68 CALM      29.83R
PORT HURON     FAIR      86  64  48 SW6       29.86F
TRI CITIES     FAIR      86  65  49 NW10      29.85R
YPSILANTI      FAIR      93  60  33 SW5       29.88F HX  93
$$
MIZ043>046-050>051-056>058-064>065-071>073-077>080-272200-
SOUTHWEST LOWER MICHIGAN

CITY           SKY/WX    TMP DP  RH WIND       PRES   REMARKS
BATTLE CREEK   FAIR      90  63  40 NW9       29.89F HX  91
BENTON HARBOR  FAIR      88  65  46 W5        29.88F HX  90
BIG RAPIDS     FAIR      91  52  26 W10       29.86S
COLDWATER      FAIR      92  49  22 CALM      29.89F
HOLLAND        FAIR      88  63  43 W7        29.89S
GRAND RAPIDS   FAIR      92  63  38 W12       29.87F HX  93
KALAMAZOO      FAIR      93  58  30 W7        29.88F HX  92
MARSHALL       PTSUNNY   88  60  39 CALM      29.88F
MOUNT PLEASANT FAIR      82  70  67 CALM      29.84F
MUSKEGON       FAIR      85  63  47 SW12      29.87F
STURGIS        PTSUNNY   92  58  31 CALM      29.87F HX  91
$$
MIZ016>042-272200-
NORTHERN LOWER MICHIGAN

CITY           SKY/WX    TMP DP  RH WIND       PRES   REMARKS
ALPENA         FAIR      85  66  53 N8        29.83R
BEAVER ISLAND  FAIR      74  59  59 W9        29.87S
BELLAIRE       FAIR      80  58  46 NW9       29.87R
CADILLAC       FAIR      88  52  29 NW13G20   29.88R
CHARLEVOIX     FAIR      74  60  61 W6        29.89F
GAYLORD        FAIR      83  57  41 W10       29.86F
HOUGHTON LAKE  FAIR      90  52  27 NW17G23   29.85S
MANISTEE       FAIR      82  65  56 W5        29.86F
OSCODA         FAIR      72  63  73 S5        29.85R
PELLSTON       FAIR      86  61  42 NW16      29.85R
TRAVERSE CITY  FAIR      76  59  55 NE6       29.85R
LUDINGTON      FAIR      76  65  68 W3        29.87S
$$
MIZ007>008-015-272200-
EASTERN UPPER MICHIGAN

CITY           SKY/WX    TMP DP  RH WIND       PRES   REMARKS
KINROSS        FAIR      78  61  55 NW14G20   29.85S
MACKINAC ISLAN FAIR      74  58  58 W8        29.85R
NEWBERRY       FAIR      80  58  45 N8        29.85F HAZE
S. S. MARIE    FAIR      77  61  57 NW12G17   29.84S
$$
MIZ004>006-011>014-085-272200-
CENTRAL UPPER MICHIGAN

CITY           SKY/WX    TMP DP  RH WIND       PRES   REMARKS
MANISTIQUE     FAIR      69  63  80 S8        29.85R
ESCANABA       FAIR      77  63  61 S9        29.85S
MENOMINEE      FAIR      82  63  52 SE7       29.86S
SAWYER-GWINN   SUNNY     77  57  50 NE9       29.88S
$$
MIZ001>003-009>011-084-272200-
WESTERN UPPER MICHIGAN

CITY           SKY/WX    TMP DP  RH WIND       PRES   REMARKS
IRON MOUNTAIN  FAIR      89  52  28 NW10G24   29.85S
HOUGHTON       FAIR      82  57  42 MISG      29.85S
COPPER HARBOR    N/A     50  45  83 CALM      29.85F
IRONWOOD       FAIR      84  60  44 CALM      29.84F
$$

ABBREVIATIONS USED IN REMARKS
   TC - TEMPERATURE IN CELSIUS
  WCI - WIND CHILL INDEX
   HX - HEAT INDEX
  VSB - VISIBILITY




USA.gov is the U.S. government's official web portal to all federal, state and local government web resources and services.